TimeCDT,TemperatureF,Dew PointF,Humidity,Sea Level PressureIn,VisibilityMPH,Wind Direction,Wind SpeedMPH,Gust SpeedMPH,PrecipitationIn,Events,Conditions,WindDirDegrees,DateUTC
12:53 AM,81.0,70.0,69,29.87,10.0,SW,11.5,-,N/A,,Clear,220,2013-06-27 05:53:00
1:53 AM,81.0,70.0,69,29.87,10.0,SW,10.4,-,N/A,,Clear,220,2013-06-27 06:53:00
2:53 AM,80.1,71.1,74,29.87,10.0,SW,10.4,-,N/A,,Clear,230,2013-06-27 07:53:00
3:53 AM,80.1,71.1,74,29.85,10.0,SW,13.8,-,N/A,,Clear,230,2013-06-27 08:53:00
4:53 AM,79.0,72.0,79,29.86,10.0,SW,10.4,-,N/A,,Scattered Clouds,230,2013-06-27 09:53:00
5:53 AM,79.0,72.0,79,29.87,10.0,SW,10.4,-,N/A,,Scattered Clouds,230,2013-06-27 10:53:00
6:53 AM,80.1,72.0,76,29.87,10.0,WSW,11.5,-,N/A,,Clear,240,2013-06-27 11:53:00
7:53 AM,82.9,73.9,74,29.88,10.0,WSW,12.7,-,N/A,,Clear,240,2013-06-27 12:53:00
8:53 AM,86.0,75.0,70,29.89,10.0,West,11.5,-,N/A,,Clear,260,2013-06-27 13:53:00
9:53 AM,88.0,73.0,61,29.89,10.0,WNW,10.4,-,N/A,,Clear,300,2013-06-27 14:53:00
10:53 AM,91.0,73.0,55,29.88,10.0,West,10.4,-,N/A,,Clear,280,2013-06-27 15:53:00
11:53 AM,93.0,70.0,47,29.88,10.0,NW,10.4,18.4,N/A,,Clear,320,2013-06-27 16:53:00
12:53 PM,93.9,68.0,43,29.88,10.0,WNW,9.2,17.3,N/A,,Clear,290,2013-06-27 17:53:00
1:53 PM,95.0,70.0,44,29.88,10.0,West,12.7,19.6,N/A,,Clear,270,2013-06-27 18:53:00
2:53 PM,96.1,69.1,41,29.87,10.0,WNW,8.1,-,N/A,,Clear,290,2013-06-27 19:53:00
3:53 PM,97.0,68.0,39,29.86,10.0,NW,11.5,-,N/A,,Clear,320,2013-06-27 20:53:00
4:53 PM,97.0,66.9,37,29.85,10.0,West,9.2,-,N/A,,Clear,280,2013-06-27 21:53:00
5:53 PM,97.0,66.0,36,29.83,10.0,North,8.1,-,N/A,,Clear,10,2013-06-27 22:53:00
6:53 PM,93.0,69.1,45,29.84,10.0,North,6.9,-,N/A,,Clear,10,2013-06-27 23:53:00
7:53 PM,84.0,71.1,65,29.85,10.0,Calm,Calm,-,N/A,,Clear,0,2013-06-28 00:53:00
8:53 PM,79.0,71.1,77,29.83,10.0,Calm,Calm,-,N/A,,Clear,0,2013-06-28 01:53:00
9:53 PM,77.0,72.0,84,29.81,10.0,SSW,4.6,-,N/A,,Clear,200,2013-06-28 02:53:00
10:53 PM,78.1,70.0,76,29.84,10.0,West,4.6,-,N/A,,Clear,260,2013-06-28 03:53:00
11:53 PM,75.9,70.0,82,29.83,10.0,SW,3.5,-,N/A,,Clear,220,2013-06-28 04:53:00